Погода в Энтузиасте

Россия / Владимирская область     56°35′08″N   39°46′43″E
темп.,
°C
ветер,
м/с
пор.,
м/с
влажн.,
%
обл.,
%
осадки,
мм/ч
давл.,
гПа
погр.,
м
25 июля, вс
вс2500:00+10сз22695 0.0 101812
03:00+9з22765 0.0 101911
06:00+12ю226943 0.0 102058
09:00+15юз3457100 0.0 1020236
12:00+20зюз454274 0.0 10201354
15:00+22юз353899 0.0 10192694
18:00+19зсз475696 0.0 1020254
21:00+15зсз115854 0.0 102111
26 июля, пн
пн2600:00+16ююз2253100 0.0 102225
03:00+16зюз3657100 0.0 1022137
06:00+16з246095 0.0 102292
09:00+21з34475 0.0 1022644
12:00+21з4547100 0.0 1023774
15:00+24з364014 0.0 10212059
18:00+21зюз375325 0.0 1021181
21:00+19зюз345998 0.0 102177
27 июля, вт
вт2700:00+18зюз366298 0.0 1021117
03:00+16зсз34776 0.0 102247
06:00+17ссз256513 0.0 1022138
09:00+22ссз23515 0.0 1022499
12:00+26зсз33408 0.0 10211870
15:00+26зсз343786 0.0 10192234
18:00+20ссв696681 0.2 1019391
21:00+16вюв339295 0.3 102044
28 июля, ср
ср2800:00+16ю338854 0.1 101943
03:00+15ю338412 0.1 101927
06:00+16ю23805 0.0 101779
09:00+23юз23545 0.0 1016440
12:00+28юз453921 0.0 10142498
15:00+21юв4572100 0.7 101298
18:00+19сз3685100 3.6 1012201
21:00+17юз51091100 5.2 1011251
29 июля, чт
чт2900:00+14ю1194100 0.0 101020
03:00+15вюв119373 0.0 100916
06:00+16всв129148 0.0 1008100
09:00+20св2373100 0.0 1008601
12:00+23с3356100 0.0 10081197
15:00+24зсз4455100 0.0 1008725
18:00+24з445613 0.0 1008670
21:00+19з347249 0.0 100850